Regional Weather Roundup
Issued by NWS

Home | Current Version | Previous Version | Text Only | Print | Product List | Glossary On
Versions: 1 2 3 4 5 6 7 8 9 10 11 12 13 14 15 16 17 18 19 20 21 22 23 24 25 26 27 28 29 30 31 32 33 34 35 36 37 38 39 40 41 42 43 44 45 46 47 48 49 50
000
ASUS42 KKEY 290610
RWRKEY

FLORIDA REGIONAL WEATHER ROUNDUP FOR THE FLORIDA KEYS
NATIONAL WEATHER SERVICE KEY WEST FLORIDA
100 AM EST SAT NOV 29 2014

...SOUTH FLORIDA AND THE KEYS...

CITY           SKY/WX    TMP DP  RH WIND       PRES   REMARKS
FORT MYERS     CLEAR     52  45  77 NE9       30.24S
SW REGIONAL AP CLEAR     51  44  77 N9        30.24F
NAPLES         CLEAR     52  44  74 NE9       30.22F
MIAMI          PTCLDY    56  49  77 N9        30.19F
WEST KENDALL   CLEAR     55  50  83 N13       30.19F
HOMESTEAD      CLEAR     56  50  79 NW13      30.18F
MARATHON       PTCLDY    61  55  81 N15G24    30.17S
BOCA CHICA NAS CLEAR     59  55  87 NE15      30.17S
KEY WEST INTL  PTCLDY    63  57  81 N13G25    30.18S

...INTERNATIONAL WEATHER...

CITY           SKY/WX    TMP DP  RH WIND       PRES   REMARKS
NASSAU BAHAMAS PTCLDY    72  61  68 N12       30.12S
CANCUN MEXICO  MOCLDY    72  59  64 NE6       30.13F
COZUMEL MEXICO PTCLDY    68  59  73 E9        30.12F

ADJACENT COASTAL WATERS...

STATION/POSITION TIME  SKY/WX   TEMP    WIND        PRES    WAVE
                                AIR SEA DIR/SP/G            HT/PER
                 (UTC)          (F)     (DEG/KT/KT) (MB)    (FT/S)
PULASKI SHOAL LI 0500            67      50/ 18/ 20 1021.8F
SAND KEY         0600            65      30/ 23/ 26 1021.3F
SOMBRERO KEY     0600            62      20/ 25/ 26 1021.1F
LONG KEY         0456            61 67   20/ 23/ 25 1022.2F
MOLASSES REEF    0600            61 76  360/ 20/ 22 1020.9S
FOWEY ROCKS      NOT AVBL
Buoy 42080       NOT AVBL

$$



USA.gov is the U.S. government's official web portal to all federal, state and local government web resources and services.